Location: Unspecified
(0.0000°N, 0.0000°E)
Time: 08:43:57
(UTC+00:00)

Explorer 11/Cluster Stage 4 - Pass Details

Date: 03 October 2023
Orbit: 465 x 1227 km, 28.8° (Epoch: 02 December)

Event Time Altitude Azimuth Distance (km) Brightness Sun altitude
Exits shadow 03:03:10 14° 149° (SSE) 2,351 9.3 -41.4°
Drops below altitude 10° 03:04:00 10° 145° (SE) 2,599 9.6 -41.2°
Sets 03:06:33 0° 137° (SE) 3,418 10.4 -40.6°
